owner,sensor,date,latitude,longitude,vertical_datum,wind_speed,wind_to_direction,wind_speed_of_gust,qcFlag 
TCOON,ioos:station:TCOON:009:1,2010-03-01T14:00:00Z,27.8398,-97.0727,0.0,3.0,354.0,4.0,'11111222,11111222,11111222' 
TCOON,ioos:station:TCOON:009:1,2010-03-01T15:00:00Z,27.8398,-97.0727,0.0,2.6,5.0,3.5,'11111222,11111222,11111222' 
TCOON,ioos:station:TCOON:009:1,2010-03-01T16:00:00Z,27.8398,-97.0727,0.0,2.2,294.0,2.5,'11111222,11111222,11111222' 
TCOON,ioos:station:TCOON:009:1,2010-03-01T17:00:00Z,27.8398,-97.0727,0.0,2.9,265.0,3.4,'11111222,11111222,11111222' 
TCOON,ioos:station:TCOON:009:1,2010-03-01T18:00:00Z,27.8398,-97.0727,0.0,1.8,245.0,3.4,'11111222,11111222,11111222' 
TCOON,ioos:station:TCOON:009:1,2010-03-01T19:00:00Z,27.8398,-97.0727,0.0,4.6,269.0,6.2,'11111222,11111222,11111222' 
TCOON,ioos:station:TCOON:009:1,2010-03-01T20:00:00Z,27.8398,-97.0727,0.0,7.2,305.0,9.7,'11111222,11111222,11111222' 
TCOON,ioos:station:TCOON:009:1,2010-03-01T21:00:00Z,27.8398,-97.0727,0.0,9.9,312.0,99.0,'11111222,11111222,11144222' 
TCOON,ioos:station:TCOON:009:1,2010-03-01T22:00:00Z,27.8398,-97.0727,0.0,12.2,306.0,99.0,'11111222,11111222,11144222' 
TCOON,ioos:station:TCOON:009:1,2010-03-01T23:00:00Z,27.8398,-97.0727,0.0,13.2,311.0,15.3,'11111222,11111222,11111222' 
TCOON,ioos:station:TCOON:009:1,2010-03-02T00:00:00Z,27.8398,-97.0727,0.0,10.1,312.0,14.1,'11111222,11111222,11111222' 
TCOON,ioos:station:TCOON:009:1,2010-03-02T02:00:00Z,27.8398,-97.0727,0.0,11.3,318.0,16.0,'11111222,11111222,11111222' 
TCOON,ioos:station:TCOON:009:1,2010-03-02T03:00:00Z,27.8398,-97.0727,0.0,12.8,333.0,14.5,'11111222,11111222,11111222' 
TCOON,ioos:station:TCOON:009:1,2010-03-02T04:00:00Z,27.8398,-97.0727,0.0,11.5,351.0,15.3,'11111222,11111222,11111222' 
TCOON,ioos:station:TCOON:009:1,2010-03-02T05:00:00Z,27.8398,-97.0727,0.0,12.0,349.0,15.6,'11111222,11111222,11111222' 
TCOON,ioos:station:TCOON:009:1,2010-03-02T06:00:00Z,27.8398,-97.0727,0.0,11.4,352.0,14.3,'11111222,11111222,11111222' 
TCOON,ioos:station:TCOON:009:1,2010-03-02T07:00:00Z,27.8398,-97.0727,0.0,12.6,353.0,16.2,'11111222,11111222,11111222' 
TCOON,ioos:station:TCOON:009:1,2010-03-02T08:00:00Z,27.8398,-97.0727,0.0,11.0,349.0,13.9,'11111222,11111222,11111222' 
TCOON,ioos:station:TCOON:009:1,2010-03-02T09:00:00Z,27.8398,-97.0727,0.0,10.4,339.0,14.3,'11111222,11111222,11111222' 
TCOON,ioos:station:TCOON:009:1,2010-03-02T10:00:00Z,27.8398,-97.0727,0.0,11.5,336.0,14.2,'11111222,11111222,11111222' 
TCOON,ioos:station:TCOON:009:1,2010-03-02T11:00:00Z,27.8398,-97.0727,0.0,9.5,343.0,12.5,'11111222,11111222,11111222' 
TCOON,ioos:station:TCOON:009:1,2010-03-02T12:00:00Z,27.8398,-97.0727,0.0,9.8,331.0,11.2,'11111222,11111222,11111222' 
TCOON,ioos:station:TCOON:009:1,2010-03-02T13:00:00Z,27.8398,-97.0727,0.0,6.7,316.0,12.3,'11111222,11111222,11111222' 
TCOON,ioos:station:TCOON:009:1,2010-03-02T14:00:00Z,27.8398,-97.0727,0.0,6.8,317.0,9.6,'11111222,11111222,11111222' 
TCOON,ioos:station:TCOON:009:1,2010-03-02T15:00:00Z,27.8398,-97.0727,0.0,7.3,329.0,9.1,'11111222,11111222,11111222' 
TCOON,ioos:station:TCOON:009:1,2010-03-02T16:00:00Z,27.8398,-97.0727,0.0,7.1,315.0,8.9,'11111222,11111222,11111222' 
TCOON,ioos:station:TCOON:009:1,2010-03-02T17:00:00Z,27.8398,-97.0727,0.0,5.9,312.0,8.4,'11111222,11111222,11111222' 
TCOON,ioos:station:TCOON:009:1,2010-03-02T18:00:00Z,27.8398,-97.0727,0.0,6.6,323.0,8.5,'11111222,11111222,11111222' 
TCOON,ioos:station:TCOON:009:1,2010-03-02T19:00:00Z,27.8398,-97.0727,0.0,6.2,327.0,8.4,'11111222,11111222,11111222' 
TCOON,ioos:station:TCOON:009:1,2010-03-02T20:00:00Z,27.8398,-97.0727,0.0,6.2,332.0,7.5,'11111222,11111222,11111222' 
TCOON,ioos:station:TCOON:009:1,2010-03-02T21:00:00Z,27.8398,-97.0727,0.0,3.9,336.0,8.8,'11111222,11111222,11111222' 
TCOON,ioos:station:TCOON:009:1,2010-03-02T22:00:00Z,27.8398,-97.0727,0.0,5.3,331.0,6.4,'11111222,11111222,11111222' 
TCOON,ioos:station:TCOON:009:1,2010-03-02T23:00:00Z,27.8398,-97.0727,0.0,5.4,333.0,6.4,'11111222,11111222,11111222' 
TCOON,ioos:station:TCOON:009:1,2010-03-03T00:00:00Z,27.8398,-97.0727,0.0,3.3,360.0,5.1,'11111222,11144222,11111222' 
TCOON,ioos:station:TCOON:009:1,2010-03-03T02:00:00Z,27.8398,-97.0727,0.0,2.5,24.0,2.8,'11111222,11111222,11111222' 
TCOON,ioos:station:TCOON:009:1,2010-03-03T03:00:00Z,27.8398,-97.0727,0.0,2.1,32.0,2.8,'11111222,11111222,11111222' 
TCOON,ioos:station:TCOON:009:1,2010-03-03T04:00:00Z,27.8398,-97.0727,0.0,1.1,68.0,2.0,'11111222,11111222,11111222' 
TCOON,ioos:station:TCOON:009:1,2010-03-03T05:00:00Z,27.8398,-97.0727,0.0,1.6,115.0,2.0,'11111222,11111222,11111222' 
TCOON,ioos:station:TCOON:009:1,2010-03-03T06:00:00Z,27.8398,-97.0727,0.0,1.7,112.0,2.0,'11111222,11111222,11111222' 
TCOON,ioos:station:TCOON:009:1,2010-03-03T07:00:00Z,27.8398,-97.0727,0.0,1.8,135.0,2.2,'11111222,11111222,11111222' 
TCOON,ioos:station:TCOON:009:1,2010-03-03T08:00:00Z,27.8398,-97.0727,0.0,1.6,104.0,2.1,'11111222,11111222,11111222' 
TCOON,ioos:station:TCOON:009:1,2010-03-03T09:00:00Z,27.8398,-97.0727,0.0,2.4,122.0,2.5,'11111222,11111222,11111222' 
TCOON,ioos:station:TCOON:009:1,2010-03-03T10:00:00Z,27.8398,-97.0727,0.0,1.9,124.0,2.0,'11111222,11111222,11111222' 
TCOON,ioos:station:TCOON:009:1,2010-03-03T11:00:00Z,27.8398,-97.0727,0.0,1.1,166.0,1.4,'11111222,11111222,11111222' 
TCOON,ioos:station:TCOON:009:1,2010-03-03T12:00:00Z,27.8398,-97.0727,0.0,0.0,128.0,99.0,'11111222,11111222,11144222' 
TCOON,ioos:station:TCOON:009:1,2010-03-03T14:00:00Z,27.8398,-97.0727,0.0,2.2,251.0,2.9,'11111222,11111222,11111222' 
TCOON,ioos:station:TCOON:009:1,2010-03-03T15:00:00Z,27.8398,-97.0727,0.0,2.7,255.0,3.8,'11111222,11111222,11111222' 
TCOON,ioos:station:TCOON:009:1,2010-03-03T16:00:00Z,27.8398,-97.0727,0.0,2.5,273.0,3.9,'11111222,11111222,11111222' 
TCOON,ioos:station:TCOON:009:1,2010-03-03T18:00:00Z,27.8398,-97.0727,0.0,2.4,125.0,4.0,'11111222,11111222,11111222' 
TCOON,ioos:station:TCOON:009:1,2010-03-03T19:00:00Z,27.8398,-97.0727,0.0,2.9,111.0,3.6,'11111222,11111222,11111222' 
TCOON,ioos:station:TCOON:009:1,2010-03-03T20:00:00Z,27.8398,-97.0727,0.0,3.5,97.0,5.2,'11111222,11111222,11111222' 
TCOON,ioos:station:TCOON:009:1,2010-03-03T21:00:00Z,27.8398,-97.0727,0.0,3.8,105.0,5.2,'11111222,11111222,11111222' 
TCOON,ioos:station:TCOON:009:1,2010-03-03T22:00:00Z,27.8398,-97.0727,0.0,4.8,97.0,6.8,'11111222,11111222,11111222' 
TCOON,ioos:station:TCOON:009:1,2010-03-03T23:00:00Z,27.8398,-97.0727,0.0,4.8,109.0,6.5,'11111222,11111222,11111222' 
TCOON,ioos:station:TCOON:009:1,2010-03-04T00:00:00Z,27.8398,-97.0727,0.0,4.0,111.0,5.4,'11111222,11111222,11111222' 
TCOON,ioos:station:TCOON:009:1,2010-03-04T01:00:00Z,27.8398,-97.0727,0.0,3.6,122.0,4.4,'11111222,11111222,11111222' 
TCOON,ioos:station:TCOON:009:1,2010-03-04T02:00:00Z,27.8398,-97.0727,0.0,3.4,122.0,4.9,'11111222,11111222,11111222' 
TCOON,ioos:station:TCOON:009:1,2010-03-04T03:00:00Z,27.8398,-97.0727,0.0,3.3,125.0,4.6,'11111222,11111222,11111222' 
TCOON,ioos:station:TCOON:009:1,2010-03-04T04:00:00Z,27.8398,-97.0727,0.0,3.2,129.0,4.3,'11111222,11111222,11111222' 
TCOON,ioos:station:TCOON:009:1,2010-03-04T05:00:00Z,27.8398,-97.0727,0.0,2.4,144.0,3.7,'11111222,11111222,11111222' 
TCOON,ioos:station:TCOON:009:1,2010-03-04T06:00:00Z,27.8398,-97.0727,0.0,2.6,155.0,3.8,'11111222,11111222,11111222' 
TCOON,ioos:station:TCOON:009:1,2010-03-04T07:00:00Z,27.8398,-97.0727,0.0,1.9,158.0,3.7,'11111222,11111222,11111222' 
TCOON,ioos:station:TCOON:009:1,2010-03-04T08:00:00Z,27.8398,-97.0727,0.0,2.4,164.0,3.5,'11111222,11111222,11111222' 
TCOON,ioos:station:TCOON:009:1,2010-03-04T09:00:00Z,27.8398,-97.0727,0.0,2.1,152.0,3.9,'11111222,11111222,11111222' 
TCOON,ioos:station:TCOON:009:1,2010-03-04T10:00:00Z,27.8398,-97.0727,0.0,1.6,139.0,3.0,'11111222,11111222,11111222' 
TCOON,ioos:station:TCOON:009:1,2010-03-04T11:00:00Z,27.8398,-97.0727,0.0,1.4,159.0,2.8,'11111222,11111222,11111222' 
TCOON,ioos:station:TCOON:009:1,2010-03-04T12:00:00Z,27.8398,-97.0727,0.0,1.5,150.0,2.5,'11111222,11111222,11111222' 
TCOON,ioos:station:TCOON:009:1,2010-03-04T13:00:00Z,27.8398,-97.0727,0.0,2.0,135.0,2.9,'11111222,11111222,11111222' 
TCOON,ioos:station:TCOON:009:1,2010-03-04T14:00:00Z,27.8398,-97.0727,0.0,2.5,135.0,10.3,'11111222,11111222,11111222' 
TCOON,ioos:station:TCOON:009:1,2010-03-04T15:00:00Z,27.8398,-97.0727,0.0,3.8,135.0,7.4,'11111222,11111222,11111222' 
TCOON,ioos:station:TCOON:009:1,2010-03-04T17:00:00Z,27.8398,-97.0727,0.0,4.9,138.0,6.9,'11111222,11111222,11111222' 
TCOON,ioos:station:TCOON:009:1,2010-03-04T18:00:00Z,27.8398,-97.0727,0.0,5.6,135.0,7.5,'11111222,11111222,11111222' 
TCOON,ioos:station:TCOON:009:1,2010-03-04T19:00:00Z,27.8398,-97.0727,0.0,4.3,139.0,6.8,'11111222,11111222,11111222' 
TCOON,ioos:station:TCOON:009:1,2010-03-04T20:00:00Z,27.8398,-97.0727,0.0,4.5,143.0,7.4,'11111222,11111222,11111222' 
TCOON,ioos:station:TCOON:009:1,2010-03-04T22:00:00Z,27.8398,-97.0727,0.0,5.9,123.0,7.8,'11111222,11111222,11111222' 
TCOON,ioos:station:TCOON:009:1,2010-03-04T23:00:00Z,27.8398,-97.0727,0.0,3.4,125.0,7.1,'11111222,11111222,11111222' 
TCOON,ioos:station:TCOON:009:1,2010-03-05T00:00:00Z,27.8398,-97.0727,0.0,3.6,131.0,5.3,'11111222,11111222,11111222' 
TCOON,ioos:station:TCOON:009:1,2010-03-05T01:00:00Z,27.8398,-97.0727,0.0,3.1,123.0,4.2,'11111222,11111222,11111222' 
TCOON,ioos:station:TCOON:009:1,2010-03-05T02:00:00Z,27.8398,-97.0727,0.0,3.2,121.0,4.0,'11111222,11111222,11111222' 
TCOON,ioos:station:TCOON:009:1,2010-03-05T03:00:00Z,27.8398,-97.0727,0.0,2.9,138.0,4.4,'11111222,11111222,11111222' 
TCOON,ioos:station:TCOON:009:1,2010-03-05T04:00:00Z,27.8398,-97.0727,0.0,2.6,141.0,4.6,'11111222,11111222,11111222' 
TCOON,ioos:station:TCOON:009:1,2010-03-05T05:00:00Z,27.8398,-97.0727,0.0,3.2,141.0,4.5,'11111222,11111222,11111222' 
TCOON,ioos:station:TCOON:009:1,2010-03-05T06:00:00Z,27.8398,-97.0727,0.0,4.5,131.0,5.7,'11111222,11111222,11111222' 
TCOON,ioos:station:TCOON:009:1,2010-03-05T07:00:00Z,27.8398,-97.0727,0.0,3.5,141.0,4.9,'11111222,11111222,11111222' 
TCOON,ioos:station:TCOON:009:1,2010-03-05T08:00:00Z,27.8398,-97.0727,0.0,4.8,127.0,6.7,'11111222,11111222,11111222' 
TCOON,ioos:station:TCOON:009:1,2010-03-05T09:00:00Z,27.8398,-97.0727,0.0,5.6,124.0,7.9,'11111222,11111222,11111222' 
TCOON,ioos:station:TCOON:009:1,2010-03-05T10:00:00Z,27.8398,-97.0727,0.0,5.1,130.0,7.3,'11111222,11111222,11111222' 
TCOON,ioos:station:TCOON:009:1,2010-03-05T11:00:00Z,27.8398,-97.0727,0.0,5.3,132.0,6.6,'11111222,11111222,11111222' 
TCOON,ioos:station:TCOON:009:1,2010-03-05T12:00:00Z,27.8398,-97.0727,0.0,3.7,119.0,5.5,'11111222,11111222,11111222' 
TCOON,ioos:station:TCOON:009:1,2010-03-05T13:00:00Z,27.8398,-97.0727,0.0,3.6,122.0,5.7,'11111222,11111222,11111222' 
TCOON,ioos:station:TCOON:009:1,2010-03-05T14:00:00Z,27.8398,-97.0727,0.0,4.2,133.0,6.1,'11111222,11111222,11111222' 
TCOON,ioos:station:TCOON:009:1,2010-03-05T15:00:00Z,27.8398,-97.0727,0.0,3.3,119.0,4.6,'11111222,11111222,11111222' 
TCOON,ioos:station:TCOON:009:1,2010-03-05T16:00:00Z,27.8398,-97.0727,0.0,4.4,116.0,6.5,'11111222,11111222,11111222' 
TCOON,ioos:station:TCOON:009:1,2010-03-05T17:00:00Z,27.8398,-97.0727,0.0,3.8,121.0,6.2,'11111222,11111222,11111222' 
TCOON,ioos:station:TCOON:009:1,2010-03-05T18:00:00Z,27.8398,-97.0727,0.0,3.7,118.0,5.3,'11111222,11111222,11111222' 
TCOON,ioos:station:TCOON:009:1,2010-03-05T19:00:00Z,27.8398,-97.0727,0.0,3.6,114.0,5.4,'11111222,11111222,11111222' 
TCOON,ioos:station:TCOON:009:1,2010-03-05T20:00:00Z,27.8398,-97.0727,0.0,3.4,96.0,5.0,'11111222,11111222,11111222' 
TCOON,ioos:station:TCOON:009:1,2010-03-05T21:00:00Z,27.8398,-97.0727,0.0,4.0,88.0,5.0,'11111222,11111222,11111222' 
TCOON,ioos:station:TCOON:009:1,2010-03-05T22:00:00Z,27.8398,-97.0727,0.0,3.7,83.0,5.0,'11111222,11111222,11111222' 
TCOON,ioos:station:TCOON:009:1,2010-03-05T23:00:00Z,27.8398,-97.0727,0.0,3.9,101.0,6.5,'11111222,11111222,11111222' 
TCOON,ioos:station:TCOON:009:1,2010-03-06T00:00:00Z,27.8398,-97.0727,0.0,3.4,103.0,5.0,'11111222,11111222,11111222' 
TCOON,ioos:station:TCOON:009:1,2010-03-06T01:00:00Z,27.8398,-97.0727,0.0,3.3,83.0,4.1,'11111222,11111222,11111222' 
TCOON,ioos:station:TCOON:009:1,2010-03-06T02:00:00Z,27.8398,-97.0727,0.0,3.4,67.0,4.3,'11111222,11111222,11111222' 
TCOON,ioos:station:TCOON:009:1,2010-03-06T03:00:00Z,27.8398,-97.0727,0.0,4.1,71.0,5.0,'11111222,11111222,11111222' 
TCOON,ioos:station:TCOON:009:1,2010-03-06T05:00:00Z,27.8398,-97.0727,0.0,3.3,92.0,4.3,'11111222,11111222,11111222' 
TCOON,ioos:station:TCOON:009:1,2010-03-06T06:00:00Z,27.8398,-97.0727,0.0,2.8,97.0,4.1,'11111222,11111222,11111222' 
TCOON,ioos:station:TCOON:009:1,2010-03-06T07:00:00Z,27.8398,-97.0727,0.0,3.0,113.0,3.7,'11111222,11111222,11111222' 
TCOON,ioos:station:TCOON:009:1,2010-03-06T08:00:00Z,27.8398,-97.0727,0.0,3.0,109.0,4.8,'11111222,11111222,11111222' 
TCOON,ioos:station:TCOON:009:1,2010-03-06T09:00:00Z,27.8398,-97.0727,0.0,3.3,109.0,4.9,'11111222,11111222,11111222' 
TCOON,ioos:station:TCOON:009:1,2010-03-06T10:00:00Z,27.8398,-97.0727,0.0,3.8,90.0,5.1,'11111222,11111222,11111222' 
TCOON,ioos:station:TCOON:009:1,2010-03-06T11:00:00Z,27.8398,-97.0727,0.0,3.3,89.0,5.1,'11111222,11111222,11111222' 
TCOON,ioos:station:TCOON:009:1,2010-03-06T12:00:00Z,27.8398,-97.0727,0.0,3.8,89.0,4.6,'11111222,11111222,11111222' 
TCOON,ioos:station:TCOON:009:1,2010-03-06T13:00:00Z,27.8398,-97.0727,0.0,3.7,74.0,4.0,'11111222,11111222,11111222' 
TCOON,ioos:station:TCOON:009:1,2010-03-06T14:00:00Z,27.8398,-97.0727,0.0,4.3,80.0,5.0,'11111222,11111222,11111222' 
TCOON,ioos:station:TCOON:009:1,2010-03-06T15:00:00Z,27.8398,-97.0727,0.0,4.1,95.0,6.4,'11111222,11111222,11111222' 
TCOON,ioos:station:TCOON:009:1,2010-03-06T16:00:00Z,27.8398,-97.0727,0.0,3.7,97.0,4.7,'11111222,11111222,11111222' 
TCOON,ioos:station:TCOON:009:1,2010-03-06T17:00:00Z,27.8398,-97.0727,0.0,4.6,95.0,5.7,'11111222,11111222,11111222' 
TCOON,ioos:station:TCOON:009:1,2010-03-06T18:00:00Z,27.8398,-97.0727,0.0,4.3,90.0,5.9,'11111222,11111222,11111222' 
TCOON,ioos:station:TCOON:009:1,2010-03-06T19:00:00Z,27.8398,-97.0727,0.0,5.9,88.0,7.5,'11111222,11111222,11111222' 
TCOON,ioos:station:TCOON:009:1,2010-03-06T20:00:00Z,27.8398,-97.0727,0.0,6.6,86.0,9.4,'11111222,11111222,11111222' 
TCOON,ioos:station:TCOON:009:1,2010-03-06T21:00:00Z,27.8398,-97.0727,0.0,7.1,87.0,9.2,'11111222,11111222,11111222' 
TCOON,ioos:station:TCOON:009:1,2010-03-06T22:00:00Z,27.8398,-97.0727,0.0,6.9,83.0,8.4,'11111222,11111222,11111222' 
TCOON,ioos:station:TCOON:009:1,2010-03-06T23:00:00Z,27.8398,-97.0727,0.0,6.9,80.0,8.8,'11111222,11111222,11111222' 
TCOON,ioos:station:TCOON:009:1,2010-03-07T00:00:00Z,27.8398,-97.0727,0.0,6.8,81.0,7.9,'11111222,11111222,11111222' 
TCOON,ioos:station:TCOON:009:1,2010-03-07T01:00:00Z,27.8398,-97.0727,0.0,6.7,84.0,8.4,'11111222,11111222,11111222' 
TCOON,ioos:station:TCOON:009:1,2010-03-07T04:00:00Z,27.8398,-97.0727,0.0,3.1,88.0,3.9,'11111222,11111222,11111222' 
TCOON,ioos:station:TCOON:009:1,2010-03-07T05:00:00Z,27.8398,-97.0727,0.0,3.8,111.0,5.1,'11111222,11111222,11111222' 
TCOON,ioos:station:TCOON:009:1,2010-03-07T08:00:00Z,27.8398,-97.0727,0.0,2.3,113.0,3.5,'11111222,11111222,11111222' 
TCOON,ioos:station:TCOON:009:1,2010-03-07T09:00:00Z,27.8398,-97.0727,0.0,3.7,128.0,5.1,'11111222,11111222,11111222' 
TCOON,ioos:station:TCOON:009:1,2010-03-07T10:00:00Z,27.8398,-97.0727,0.0,3.6,129.0,5.3,'11111222,11111222,11111222' 
TCOON,ioos:station:TCOON:009:1,2010-03-07T11:00:00Z,27.8398,-97.0727,0.0,4.2,134.0,5.0,'11111222,11111222,11111222' 
TCOON,ioos:station:TCOON:009:1,2010-03-07T12:00:00Z,27.8398,-97.0727,0.0,3.7,116.0,4.8,'11111222,11111222,11111222' 
TCOON,ioos:station:TCOON:009:1,2010-03-07T13:00:00Z,27.8398,-97.0727,0.0,3.0,110.0,4.3,'11111222,11111222,11111222' 
TCOON,ioos:station:TCOON:009:1,2010-03-07T14:00:00Z,27.8398,-97.0727,0.0,4.1,118.0,6.5,'11111222,11111222,11111222' 
TCOON,ioos:station:TCOON:009:1,2010-03-07T15:00:00Z,27.8398,-97.0727,0.0,5.6,118.0,7.5,'11111222,11111222,11111222' 
TCOON,ioos:station:TCOON:009:1,2010-03-07T16:00:00Z,27.8398,-97.0727,0.0,5.3,122.0,8.2,'11111222,11111222,11111222' 
TCOON,ioos:station:TCOON:009:1,2010-03-07T17:00:00Z,27.8398,-97.0727,0.0,3.4,104.0,8.8,'11111222,11111222,11111222' 
TCOON,ioos:station:TCOON:009:1,2010-03-07T18:00:00Z,27.8398,-97.0727,0.0,3.4,89.0,4.0,'11111222,11111222,11111222' 
TCOON,ioos:station:TCOON:009:1,2010-03-07T20:00:00Z,27.8398,-97.0727,0.0,5.1,110.0,6.4,'11111222,11111222,11111222' 
TCOON,ioos:station:TCOON:009:1,2010-03-07T21:00:00Z,27.8398,-97.0727,0.0,4.9,117.0,7.7,'11111222,11111222,11111222' 
TCOON,ioos:station:TCOON:009:1,2010-03-07T23:00:00Z,27.8398,-97.0727,0.0,5.0,103.0,6.6,'11111222,11111222,11111222' 
TCOON,ioos:station:TCOON:009:1,2010-03-08T00:00:00Z,27.8398,-97.0727,0.0,5.2,114.0,7.3,'11111222,11111222,11111222' 
TCOON,ioos:station:TCOON:009:1,2010-03-08T01:00:00Z,27.8398,-97.0727,0.0,6.7,123.0,8.7,'11111222,11111222,11111222' 
TCOON,ioos:station:TCOON:009:1,2010-03-08T02:00:00Z,27.8398,-97.0727,0.0,7.8,131.0,15.4,'11111222,11111222,11111222' 
TCOON,ioos:station:TCOON:009:1,2010-03-08T03:00:00Z,27.8398,-97.0727,0.0,7.0,133.0,10.7,'11111222,11111222,11111222' 
TCOON,ioos:station:TCOON:009:1,2010-03-08T04:00:00Z,27.8398,-97.0727,0.0,6.0,132.0,7.6,'11111222,11111222,11111222' 
TCOON,ioos:station:TCOON:009:1,2010-03-08T05:00:00Z,27.8398,-97.0727,0.0,5.9,146.0,8.8,'11111222,11111222,11111222' 
TCOON,ioos:station:TCOON:009:1,2010-03-08T06:00:00Z,27.8398,-97.0727,0.0,5.6,135.0,7.0,'11111222,11111222,11111222' 
TCOON,ioos:station:TCOON:009:1,2010-03-08T07:00:00Z,27.8398,-97.0727,0.0,6.0,128.0,7.8,'11111222,11111222,11111222' 
TCOON,ioos:station:TCOON:009:1,2010-03-08T08:00:00Z,27.8398,-97.0727,0.0,5.0,129.0,7.4,'11111222,11111222,11111222' 
TCOON,ioos:station:TCOON:009:1,2010-03-08T09:00:00Z,27.8398,-97.0727,0.0,5.1,126.0,8.0,'11111222,11111222,11111222' 
TCOON,ioos:station:TCOON:009:1,2010-03-08T10:00:00Z,27.8398,-97.0727,0.0,5.6,126.0,7.9,'11111222,11111222,11111222' 
TCOON,ioos:station:TCOON:009:1,2010-03-08T11:00:00Z,27.8398,-97.0727,0.0,3.7,127.0,8.6,'11111222,11111222,11111222' 
TCOON,ioos:station:TCOON:009:1,2010-03-08T12:00:00Z,27.8398,-97.0727,0.0,5.4,131.0,8.3,'11111222,11111222,11111222' 
TCOON,ioos:station:TCOON:009:1,2010-03-08T13:00:00Z,27.8398,-97.0727,0.0,6.2,131.0,8.3,'11111222,11111222,11111222' 
TCOON,ioos:station:TCOON:009:1,2010-03-08T14:00:00Z,27.8398,-97.0727,0.0,5.7,129.0,7.4,'11111222,11111222,11111222' 
TCOON,ioos:station:TCOON:009:1,2010-03-08T15:00:00Z,27.8398,-97.0727,0.0,3.8,118.0,5.4,'11111222,11111222,11111222' 
TCOON,ioos:station:TCOON:009:1,2010-03-08T16:00:00Z,27.8398,-97.0727,0.0,5.1,117.0,6.5,'11111222,11111222,11111222' 
TCOON,ioos:station:TCOON:009:1,2010-03-08T17:00:00Z,27.8398,-97.0727,0.0,7.1,127.0,10.2,'11111222,11111222,11111222' 
TCOON,ioos:station:TCOON:009:1,2010-03-08T18:00:00Z,27.8398,-97.0727,0.0,7.0,128.0,10.9,'11111222,11111222,11111222' 
TCOON,ioos:station:TCOON:009:1,2010-03-08T19:00:00Z,27.8398,-97.0727,0.0,5.1,130.0,6.9,'11111222,11111222,11111222' 
TCOON,ioos:station:TCOON:009:1,2010-03-08T21:00:00Z,27.8398,-97.0727,0.0,6.8,133.0,11.7,'11111222,11111222,11111222' 
TCOON,ioos:station:TCOON:009:1,2010-03-08T23:00:00Z,27.8398,-97.0727,0.0,6.6,145.0,11.0,'11111222,11111222,11111222' 
TCOON,ioos:station:TCOON:009:1,2010-03-09T00:00:00Z,27.8398,-97.0727,0.0,5.5,155.0,8.7,'11111222,11111222,11111222' 
TCOON,ioos:station:TCOON:009:1,2010-03-09T01:00:00Z,27.8398,-97.0727,0.0,4.2,157.0,7.6,'11111222,11111222,11111222' 
TCOON,ioos:station:TCOON:009:1,2010-03-09T02:00:00Z,27.8398,-97.0727,0.0,4.8,163.0,8.3,'11111222,11111222,11111222' 
TCOON,ioos:station:TCOON:009:1,2010-03-09T03:00:00Z,27.8398,-97.0727,0.0,5.1,158.0,8.7,'11111222,11111222,11111222' 
TCOON,ioos:station:TCOON:009:1,2010-03-09T04:00:00Z,27.8398,-97.0727,0.0,4.3,168.0,6.6,'11111222,11111222,11111222' 
TCOON,ioos:station:TCOON:009:1,2010-03-09T05:00:00Z,27.8398,-97.0727,0.0,2.6,136.0,4.8,'11111222,11111222,11111222' 
TCOON,ioos:station:TCOON:009:1,2010-03-09T06:00:00Z,27.8398,-97.0727,0.0,1.8,87.0,2.3,'11111222,11111222,11111222' 
TCOON,ioos:station:TCOON:009:1,2010-03-09T07:00:00Z,27.8398,-97.0727,0.0,2.3,110.0,3.2,'11111222,11111222,11111222' 
TCOON,ioos:station:TCOON:009:1,2010-03-09T08:00:00Z,27.8398,-97.0727,0.0,2.6,128.0,3.5,'11111222,11111222,11111222' 
TCOON,ioos:station:TCOON:009:1,2010-03-09T09:00:00Z,27.8398,-97.0727,0.0,2.6,141.0,3.5,'11111222,11111222,11111222' 
TCOON,ioos:station:TCOON:009:1,2010-03-09T10:00:00Z,27.8398,-97.0727,0.0,2.3,120.0,3.3,'11111222,11111222,11111222' 
TCOON,ioos:station:TCOON:009:1,2010-03-09T11:00:00Z,27.8398,-97.0727,0.0,3.5,130.0,5.0,'11111222,11111222,11111222' 
TCOON,ioos:station:TCOON:009:1,2010-03-09T12:00:00Z,27.8398,-97.0727,0.0,4.7,136.0,6.6,'11111222,11111222,11111222' 
TCOON,ioos:station:TCOON:009:1,2010-03-09T13:00:00Z,27.8398,-97.0727,0.0,4.0,145.0,5.5,'11111222,11111222,11111222' 
TCOON,ioos:station:TCOON:009:1,2010-03-09T14:00:00Z,27.8398,-97.0727,0.0,2.4,153.0,4.9,'11111222,11111222,11111222' 
TCOON,ioos:station:TCOON:009:1,2010-03-09T15:00:00Z,27.8398,-97.0727,0.0,3.3,165.0,4.3,'11111222,11111222,11111222' 
TCOON,ioos:station:TCOON:009:1,2010-03-09T16:00:00Z,27.8398,-97.0727,0.0,3.3,180.0,5.7,'11111222,11111222,11111222' 
TCOON,ioos:station:TCOON:009:1,2010-03-09T17:00:00Z,27.8398,-97.0727,0.0,4.4,187.0,6.0,'11111222,11111222,11111222' 
TCOON,ioos:station:TCOON:009:1,2010-03-09T18:00:00Z,27.8398,-97.0727,0.0,3.5,209.0,5.0,'11111222,11111222,11111222' 
TCOON,ioos:station:TCOON:009:1,2010-03-09T19:00:00Z,27.8398,-97.0727,0.0,3.0,191.0,4.9,'11111222,11111222,11111222' 
TCOON,ioos:station:TCOON:009:1,2010-03-09T20:00:00Z,27.8398,-97.0727,0.0,3.5,186.0,5.3,'11111222,11111222,11111222' 
TCOON,ioos:station:TCOON:009:1,2010-03-09T21:00:00Z,27.8398,-97.0727,0.0,4.0,182.0,5.8,'11111222,11111222,11111222' 
TCOON,ioos:station:TCOON:009:1,2010-03-09T22:00:00Z,27.8398,-97.0727,0.0,3.7,159.0,4.6,'11111222,11111222,11111222' 
TCOON,ioos:station:TCOON:009:1,2010-03-09T23:00:00Z,27.8398,-97.0727,0.0,3.2,164.0,5.2,'11111222,11111222,11111222' 
TCOON,ioos:station:TCOON:009:1,2010-03-10T00:00:00Z,27.8398,-97.0727,0.0,3.1,149.0,4.2,'11111222,11111222,11111222' 
TCOON,ioos:station:TCOON:009:1,2010-03-10T01:00:00Z,27.8398,-97.0727,0.0,3.5,147.0,5.3,'11111222,11111222,11111222' 
TCOON,ioos:station:TCOON:009:1,2010-03-10T02:00:00Z,27.8398,-97.0727,0.0,3.3,146.0,5.0,'11111222,11111222,11111222' 
TCOON,ioos:station:TCOON:009:1,2010-03-10T03:00:00Z,27.8398,-97.0727,0.0,3.1,133.0,4.7,'11111222,11111222,11111222' 
TCOON,ioos:station:TCOON:009:1,2010-03-10T04:00:00Z,27.8398,-97.0727,0.0,3.2,157.0,5.3,'11111222,11111222,11111222' 
TCOON,ioos:station:TCOON:009:1,2010-03-10T05:00:00Z,27.8398,-97.0727,0.0,4.4,167.0,7.8,'11111222,11111222,11111222' 
TCOON,ioos:station:TCOON:009:1,2010-03-10T07:00:00Z,27.8398,-97.0727,0.0,4.7,172.0,6.0,'11111222,11111222,11111222' 
TCOON,ioos:station:TCOON:009:1,2010-03-10T08:00:00Z,27.8398,-97.0727,0.0,2.6,185.0,4.0,'11111222,11111222,11111222' 
TCOON,ioos:station:TCOON:009:1,2010-03-10T09:00:00Z,27.8398,-97.0727,0.0,3.4,171.0,5.2,'11111222,11111222,11111222' 
TCOON,ioos:station:TCOON:009:1,2010-03-10T10:00:00Z,27.8398,-97.0727,0.0,2.8,183.0,4.6,'11111222,11111222,11111222' 
TCOON,ioos:station:TCOON:009:1,2010-03-10T11:00:00Z,27.8398,-97.0727,0.0,2.1,174.0,5.1,'11111222,11111222,11111222' 
TCOON,ioos:station:TCOON:009:1,2010-03-10T12:00:00Z,27.8398,-97.0727,0.0,1.5,144.0,2.3,'11111222,11111222,11111222' 
TCOON,ioos:station:TCOON:009:1,2010-03-10T13:00:00Z,27.8398,-97.0727,0.0,0.5,144.0,2.3,'11111222,11111222,11111222' 
TCOON,ioos:station:TCOON:009:1,2010-03-10T14:00:00Z,27.8398,-97.0727,0.0,0.0,129.0,2.1,'11111222,11111222,11111222' 
TCOON,ioos:station:TCOON:009:1,2010-03-10T15:00:00Z,27.8398,-97.0727,0.0,2.5,152.0,3.4,'11111222,11111222,11111222' 
TCOON,ioos:station:TCOON:009:1,2010-03-10T17:00:00Z,27.8398,-97.0727,0.0,4.0,171.0,5.6,'11111222,11111222,11111222' 
TCOON,ioos:station:TCOON:009:1,2010-03-10T18:00:00Z,27.8398,-97.0727,0.0,4.5,185.0,6.0,'11111222,11111222,11111222' 